Weather History for Greensboro, NC

Change the Weather History Date:

Monday, December 3, 2012

  Actual Average Record
Temperature  
Mean Temperature 63 °F 44 °F  
Max Temperature 73 °F 54 °F 73 °F (2012)
Min Temperature 52 °F 35 °F 15 °F (1935)
Degree Days  
Heating Degree Days 2 21  
Month to date heating degree days 28 61  
Since 1 July heating degree days 807 741  
Cooling Degree Days 0 0  
Month to date cooling degree days 0 0  
Year to date cooling degree days 1623 1483  
Growing Degree Days 13 (Base 50)    
Moisture  
Dew Point 50 °F    
Average Humidity 67    
Maximum Humidity 92    
Minimum Humidity 44    
Precipitation  
Precipitation 0.00 in 0.10 in 1.90 in (1990)
Month to date precipitation 0.00 0.31  
Year to date precipitation 34.06 39.53  
Snow  
Snow 0.00 in 0.00 in 4.20 in (1971)
Month to date snowfall 0.0 0.0  
Since 1 July snowfall 0.0 0.1  
Snow Depth 0.00 in    
Sea Level Pressure  
Sea Level Pressure 30.25 in    
Wind  
Wind Speed 5 mph (SSW)    
Max Wind Speed 9 mph    
Max Gust Speed 13 mph    
Visibility 10 miles    
Events      
T = Trace of Precipitation, MM = Missing Value Source: NWS Daily Summary

Daily Weather History Graph

Daily Weather History Graph

Search for Another Location

Airport:

Trip Planner

Search our weather history database for the weather conditions in past years. The results will help you decide how hot, cold, wet, or windy it might be!

Date:

Astronomy

Dec. 03, 2012 Rise Set
Actual Time 7:14 AM EST 5:05 PM EST
Civil Twilight 6:46 AM EST 5:33 PM EST
Nautical Twilight 6:14 AM EST 6:05 PM EST
Astronomical Twilight 5:43 AM EST 6:36 PM EST
Moon 9:45 PM EST (12/3) 10:40 AM EST (12/3)
Length of Visible Light 10h 47m
Length of Day
9h 50m
Waning Gibbous, 78% of the Moon is Illuminated
Dec 3
Waning Gibbous
Dec 6
Last Quarter
Dec 13
New
Dec 20
First Quarter
Dec 28
Full

Hourly Weather History & Observations

Time (EST) Temp. Dew Point Humidity Pressure Visibility Wind Dir Wind Speed Gust Speed Precip Events Conditions
1:54 AM 55.0 °F 50.0 °F 83% 30.25 in 10.0 mi SW 8.1 mph - N/A   Mostly Cloudy
2:54 AM 55.9 °F 51.1 °F 84% 30.25 in 10.0 mi SW 5.8 mph - N/A   Mostly Cloudy
3:54 AM 54.0 °F 50.0 °F 86% 30.25 in 10.0 mi WSW 4.6 mph - N/A   Mostly Cloudy
4:54 AM 53.1 °F 50.0 °F 89% 30.25 in 10.0 mi SW 8.1 mph - N/A   Mostly Cloudy
5:54 AM 54.0 °F 51.8 °F 92% 30.25 in 10.0 mi NNW 5.8 mph - N/A   Overcast
6:54 AM 53.1 °F 50.0 °F 89% 30.26 in 10.0 mi SW 5.8 mph - N/A   Mostly Cloudy
7:54 AM 53.1 °F 50.0 °F 89% 30.27 in 10.0 mi SW 4.6 mph - N/A   Clear
8:54 AM 57.0 °F 50.0 °F 77% 30.28 in 10.0 mi WSW 8.1 mph - N/A   Scattered Clouds
9:54 AM 62.1 °F 50.0 °F 65% 30.29 in 10.0 mi Variable 3.5 mph - N/A   Scattered Clouds
10:54 AM 66.0 °F 50.0 °F 56% 30.28 in 10.0 mi South 4.6 mph - N/A   Scattered Clouds
11:54 AM 68.0 °F 51.1 °F 55% 30.26 in 10.0 mi SE 4.6 mph - N/A   Partly Cloudy
12:54 PM 72.0 °F 48.9 °F 44% 30.22 in 10.0 mi Variable 3.5 mph - N/A   Scattered Clouds
1:54 PM 72.0 °F 48.9 °F 44% 30.21 in 10.0 mi SW 3.5 mph - N/A   Partly Cloudy
2:54 PM 72.0 °F 48.9 °F 44% 30.20 in 10.0 mi SSW 4.6 mph - N/A   Partly Cloudy
3:54 PM 71.1 °F 48.9 °F 45% 30.20 in 10.0 mi SSW 5.8 mph - N/A   Partly Cloudy
4:54 PM 66.9 °F 48.9 °F 52% 30.22 in 10.0 mi Variable 4.6 mph - N/A   Partly Cloudy
5:54 PM 64.9 °F 48.9 °F 56% 30.22 in 10.0 mi SSW 3.5 mph - N/A   Clear
6:54 PM 62.1 °F 48.9 °F 62% 30.25 in 10.0 mi South 3.5 mph - N/A   Clear
7:54 PM 60.1 °F 48.9 °F 67% 30.25 in 10.0 mi South 4.6 mph - N/A   Clear
8:54 PM 59.0 °F 50.0 °F 72% 30.26 in 10.0 mi South 3.5 mph - N/A   Clear
9:54 PM 55.9 °F 48.9 °F 77% 30.26 in 10.0 mi South 4.6 mph - N/A   Clear
10:54 PM 54.0 °F 48.0 °F 80% 30.26 in 10.0 mi SSW 5.8 mph - N/A   Clear
11:54 PM 54.0 °F 48.9 °F 83% 30.25 in 10.0 mi SSW 4.6 mph - N/A   Clear